Location: La Comballaz
(46.3780°N, 7.0817°E)
Time: 23:17:22
(UTC+00:00)

X-37B - Pass Details

Date: 15 December 2021
Orbit: 334 x 337 km, 45.0° (Epoch: 11 January)

Event Time Altitude Azimuth Distance (km) Brightness Sun altitude
Rises 16:45:05 0° 270° (W) 2,106 5.7 -9.8°
Reaches altitude 10° 16:47:06 10° 268° (W) 1,268 4.4 -10.2°
Maximum altitude 16:49:55 64° 186° (S) 375 0.6 -10.6°
Enters shadow 16:52:16 14° 105° (ESE) 1,077 2.4 -11.0°
